Flag for Germany Weather past 2 weeks in Wiesbaden, Hesse, Germany

Now
37 °F

Passing clouds.


Feels Like: 31 °F
Forecast: 37 / 45 °F
Wind: 8 mph from Northwest

Location: Wiesbaden Airport

Current Time: Mar 4, 2015 at 8:56:37 PM

Latest Report: Mar 4, 2015 at 7:58 PM


Visibility: N/A

Pressure: 30.41 "Hg

Humidity: 87%

Dew point: 34 °F

Location of WiesbadenLocation

Historic Weather in Wiesbaden — Graph

°F

Wiesbaden temperature yesterday

Maximum temperature yesterday: 52 °F (at 4:58 PM)
Minimum temperature yesterday: 32 °F (at 7:58 AM)
Average temperature yesterday: 41 °F

Past Weeks' High & Low Weather Summary

 TemperatureHumidityPressure
High52 °F (Feb 20, 1:58 PM)100% (Feb 22, 5:58 AM)30.78 "Hg (Feb 22, 5:58 AM)
Low29 °F (Feb 28, 6:58 AM)43% (Mar 2, 3:58 PM)29.47 "Hg (Feb 21, 6:58 AM)
Average39 °F82%30.01 "Hg
* Reported Feb 17 6:58 PM — Mar 4 6:58 PM, Wiesbaden, Weather by CustomWeather, © 2015

Note: Actual official high and low records may vary slightly from our data, if they occured in-between our weather recording intervals... More about our weather records

Advertising

Wiesbaden weather history for previous 24 hours

 ConditionsComfort  
Time TempWeatherWind HumidityBarometerVisibility
6:58 PM
Wed, Mar 4
41 °FLight rain. Mostly cloudy.20 mph70%30.39 "HgN/A
5:58 PM41 °FSunny.8 mph76%30.36 "HgN/A
4:58 PM44 °FScattered clouds.10 mph63%30.32 "HgN/A
4:52 PM45 °FScattered clouds.10 mph61%30.30 "HgN/A
3:58 PM46 °FMostly cloudy.16 mph57%30.31 "HgN/A
2:58 PM45 °FMore clouds than sun.15 mph61%30.31 "HgN/A
2:02 PM45 °FScattered clouds.10 mph61%30.29 "HgN/A
12:58 PM44 °FOvercast.13 mph65%30.32 "HgN/A
11:58 AM43 °FOvercast.10 mph66%30.32 "HgN/A
10:58 AM42 °FPassing clouds.15 mph65%30.31 "HgN/A
9:58 AM40 °FSunny.13 mph78%30.29 "HgN/A
8:58 AM37 °FSunny.7 mph87%30.28 "HgN/A
7:58 AM32 °FSunny.7 mph100%30.27 "HgN/A
6:58 AM33 °FClear.3 mph99%30.25 "HgN/A
5:58 AM33 °FPassing clouds.2 mph97%30.25 "HgN/A
4:58 AM34 °FClear.5 mph93%30.22 "HgN/A
4:03 AM36 °FPassing clouds.3 mph87%30.20 "HgN/A
3:58 AM36 °FPassing clouds.3 mph93%30.21 "HgN/A
2:58 AM37 °FPassing clouds.7 mph87%30.19 "HgN/A
1:58 AM37 °FPassing clouds.9 mph93%30.18 "HgN/A
12:58 AM38 °FRain. Overcast.13 mph88%30.16 "HgN/A
11:58 PM
Tue, Mar 3
39 °FRain. Mostly cloudy.12 mph87%30.15 "HgN/A
10:58 PM39 °FMostly cloudy.8 mph87%30.12 "HgN/A
9:58 PM41 °FMostly cloudy.13 mph82%30.10 "HgN/A
8:58 PM43 °FLight rain. Overcast.16 mph76%30.10 "HgN/A
Weather by CustomWeather, © 2015

See weather overviewHow to use our weather pages